Zurück zum Katalog

CZ-6A DEB

AktivPO
NORAD 61456·DEBRIS·🇨🇳 China

Gestartet Aug 6, 2024 von Taiyuan Satellite Launch Center

Loading…

Nächste Überflüge (nächste 24 Stunden)

TLE

AktuellSource: Space-Track

Epoche: Sep 14, 2026, 11:10 UTC

1 61456U 24140ZN  26257.46554272  .00002599  00000-0  49923-3 0  9995
2 61456  89.1030 269.5739 0097425 306.8258  52.4047 14.60404587106070

Verfolge CZ-6A DEB in Echtzeit mit AllMySat

Download on the App Store